Time,TemperatureF,DewpointF,PressureIn,WindDirection,WindDirectionDegrees,WindSpeedMPH,WindSpeedGustMPH,Humidity,HourlyPrecipIn,Conditions,Clouds,dailyrainin,SoftwareType,DateUTC
2013-03-07 00:02:00,32.0,29.0,30.06,WNW,289,3.0,15.0,90,0.00,,,0.00,,2013-03-07 05:02:00,
2013-03-07 00:12:00,32.0,29.0,30.06,WNW,289,3.0,15.0,90,0.00,,,0.00,,2013-03-07 05:12:00,
2013-03-07 00:22:00,32.0,29.0,30.06,ENE,69,3.0,11.0,89,0.00,,,0.00,,2013-03-07 05:22:00,
2013-03-07 00:32:00,32.0,29.0,30.06,East,83,0.0,11.0,89,0.00,,,0.00,,2013-03-07 05:32:00,
2013-03-07 00:42:00,32.0,29.0,30.06,East,83,0.0,11.0,89,0.00,,,0.00,,2013-03-07 05:42:00,
2013-03-07 00:52:00,32.0,29.0,30.06,NE,47,2.0,9.0,90,0.00,,,0.00,,2013-03-07 05:52:00,
2013-03-07 01:01:00,32.0,29.0,30.06,NE,42,5.0,13.0,90,0.00,,,0.00,,2013-03-07 06:01:00,
2013-03-07 01:11:00,32.0,29.0,30.06,NE,42,5.0,13.0,90,0.00,,,0.00,,2013-03-07 06:11:00,
2013-03-07 01:21:00,32.0,29.0,30.05,NNE,19,3.0,11.0,89,0.00,,,0.00,,2013-03-07 06:21:00,
2013-03-07 01:32:00,32.0,29.0,30.04,ESE,106,1.0,11.0,88,0.00,,,0.00,,2013-03-07 06:32:00,
2013-03-07 01:42:00,32.0,29.0,30.03,East,81,4.0,15.0,88,0.00,,,0.00,,2013-03-07 06:42:00,
2013-03-07 01:52:00,32.0,29.0,30.03,East,81,4.0,15.0,88,0.00,,,0.00,,2013-03-07 06:52:00,
2013-03-07 02:01:00,32.0,29.0,30.03,East,92,2.0,9.0,88,0.00,,,0.00,,2013-03-07 07:01:00,
2013-03-07 02:11:00,32.0,29.0,30.03,East,92,2.0,9.0,88,0.00,,,0.00,,2013-03-07 07:11:00,
2013-03-07 02:22:00,31.0,28.0,30.03,NW,306,2.0,10.0,88,0.00,,,0.00,,2013-03-07 07:22:00,
2013-03-07 02:32:00,31.0,28.0,30.02,NW,324,1.0,12.0,88,0.00,,,0.00,,2013-03-07 07:32:00,
2013-03-07 02:43:00,31.0,28.0,30.02,NW,324,1.0,12.0,88,0.00,,,0.00,,2013-03-07 07:43:00,
2013-03-07 02:53:00,31.0,28.0,30.02,NW,324,1.0,12.0,88,0.00,,,0.00,,2013-03-07 07:53:00,
2013-03-07 03:03:00,31.0,28.0,30.02,ESE,105,4.0,16.0,87,0.00,,,0.00,,2013-03-07 08:03:00,
2013-03-07 03:12:00,31.0,28.0,30.02,ESE,105,4.0,16.0,87,0.00,,,0.00,,2013-03-07 08:12:00,
2013-03-07 03:23:00,31.0,28.0,30.02,ENE,68,2.0,12.0,87,0.00,,,0.00,,2013-03-07 08:23:00,
2013-03-07 03:34:00,31.0,28.0,30.02,NNE,15,2.0,9.0,87,0.00,,,0.00,,2013-03-07 08:34:00,
2013-03-07 03:44:00,31.0,28.0,30.02,NNE,15,2.0,9.0,87,0.00,,,0.00,,2013-03-07 08:44:00,
2013-03-07 03:54:00,31.0,28.0,30.02,NE,35,1.0,12.0,88,0.00,,,0.00,,2013-03-07 08:54:00,
2013-03-07 04:03:00,30.0,27.0,30.02,NE,53,5.0,12.0,88,0.00,,,0.00,,2013-03-07 09:03:00,
2013-03-07 04:13:00,30.0,27.0,30.02,NE,53,5.0,12.0,88,0.00,,,0.00,,2013-03-07 09:13:00,
2013-03-07 04:23:00,30.0,27.0,30.02,East,94,1.0,9.0,88,0.00,,,0.00,,2013-03-07 09:23:00,
2013-03-07 04:33:00,30.0,27.0,30.02,NW,312,1.0,11.0,89,0.00,,,0.00,,2013-03-07 09:33:00,
2013-03-07 04:43:00,30.0,27.0,30.02,NW,312,1.0,11.0,89,0.00,,,0.00,,2013-03-07 09:43:00,
2013-03-07 04:53:00,30.0,27.0,30.02,NE,40,3.0,10.0,89,0.00,,,0.00,,2013-03-07 09:53:00,
2013-03-07 05:03:00,30.0,27.0,30.01,NNW,339,2.0,11.0,90,0.00,,,0.00,,2013-03-07 10:03:00,
2013-03-07 05:13:00,30.0,27.0,30.01,NNW,339,2.0,11.0,90,0.00,,,0.00,,2013-03-07 10:13:00,
2013-03-07 05:23:00,30.0,27.0,30.01,ESE,122,1.0,9.0,90,0.00,,,0.00,,2013-03-07 10:23:00,
2013-03-07 05:33:00,30.0,27.0,30.02,NE,53,2.0,14.0,89,0.00,,,0.00,,2013-03-07 10:33:00,
2013-03-07 05:42:00,30.0,27.0,30.02,NE,53,2.0,14.0,89,0.00,,,0.00,,2013-03-07 10:42:00,
2013-03-07 05:53:00,30.0,27.0,30.02,NE,44,2.0,12.0,88,0.00,,,0.00,,2013-03-07 10:53:00,
2013-03-07 06:03:00,30.0,27.0,30.02,NNE,23,2.0,12.0,87,0.00,,,0.00,,2013-03-07 11:03:00,
2013-03-07 06:12:00,30.0,27.0,30.02,NNE,23,2.0,12.0,87,0.00,,,0.00,,2013-03-07 11:12:00,
2013-03-07 06:23:00,30.0,26.0,30.03,NNW,344,1.0,10.0,86,0.00,,,0.00,,2013-03-07 11:23:00,
2013-03-07 06:33:00,30.0,26.0,30.03,West,281,3.0,12.0,86,0.00,,,0.00,,2013-03-07 11:33:00,
2013-03-07 06:43:00,30.0,26.0,30.03,West,281,3.0,12.0,86,0.00,,,0.00,,2013-03-07 11:43:00,
2013-03-07 06:54:00,30.0,26.0,30.03,NW,310,2.0,8.0,85,0.00,,,0.00,,2013-03-07 11:54:00,
2013-03-07 07:03:00,30.0,26.0,30.04,North,10,1.0,10.0,84,0.00,,,0.00,,2013-03-07 12:03:00,
2013-03-07 07:12:00,30.0,26.0,30.04,North,10,1.0,10.0,84,0.00,,,0.00,,2013-03-07 12:12:00,
2013-03-07 07:23:00,30.0,26.0,30.03,ESE,104,4.0,11.0,84,0.00,,,0.00,,2013-03-07 12:23:00,
2013-03-07 07:33:00,30.0,26.0,30.04,NNE,27,4.0,13.0,84,0.00,,,0.00,,2013-03-07 12:33:00,
2013-03-07 07:43:00,30.0,26.0,30.04,NNE,27,4.0,13.0,84,0.00,,,0.00,,2013-03-07 12:43:00,
2013-03-07 07:53:00,30.0,26.0,30.05,SSE,157,0.0,8.0,85,0.00,,,0.00,,2013-03-07 12:53:00,
2013-03-07 08:03:00,29.0,25.0,30.05,South,172,2.0,11.0,86,0.00,,,0.00,,2013-03-07 13:03:00,
2013-03-07 08:12:00,29.0,25.0,30.05,South,172,2.0,11.0,86,0.00,,,0.00,,2013-03-07 13:12:00,
2013-03-07 08:23:00,30.0,27.0,30.05,NE,42,1.0,13.0,87,0.00,,,0.00,,2013-03-07 13:23:00,
2013-03-07 08:32:00,30.0,25.0,30.04,NE,45,1.0,7.0,83,0.00,,,0.00,,2013-03-07 13:32:00,
2013-03-07 08:42:00,30.0,25.0,30.04,NE,45,1.0,7.0,83,0.00,,,0.00,,2013-03-07 13:42:00,
2013-03-07 08:53:00,31.0,26.0,30.03,East,88,4.0,11.0,80,0.00,,,0.00,,2013-03-07 13:53:00,
2013-03-07 09:02:00,31.0,26.0,30.03,NNE,31,3.0,11.0,80,0.00,,,0.00,,2013-03-07 14:02:00,
2013-03-07 09:12:00,31.0,26.0,30.03,NNE,31,3.0,11.0,80,0.00,,,0.00,,2013-03-07 14:12:00,
2013-03-07 09:23:00,31.0,25.0,30.03,North,355,3.0,15.0,79,0.00,,,0.00,,2013-03-07 14:23:00,
2013-03-07 09:33:00,32.0,26.0,30.03,WSW,249,1.0,15.0,78,0.00,,,0.00,,2013-03-07 14:33:00,
2013-03-07 09:42:00,32.0,26.0,30.03,WSW,249,1.0,15.0,78,0.00,,,0.00,,2013-03-07 14:42:00,
2013-03-07 09:54:00,32.0,26.0,30.02,NW,321,4.0,15.0,78,0.00,,,0.00,,2013-03-07 14:54:00,
2013-03-07 10:03:00,32.0,26.0,30.02,NNW,329,6.0,13.0,78,0.00,,,0.00,,2013-03-07 15:03:00,
2013-03-07 10:12:00,32.0,26.0,30.02,NNW,329,6.0,13.0,78,0.00,,,0.00,,2013-03-07 15:12:00,
2013-03-07 10:23:00,32.0,27.0,30.02,ENE,62,4.0,13.0,80,0.00,,,0.00,,2013-03-07 15:23:00,
2013-03-07 10:32:00,33.0,27.0,30.02,East,101,2.0,15.0,77,0.00,,,0.00,,2013-03-07 15:32:00,
2013-03-07 10:42:00,33.0,27.0,30.02,East,101,2.0,15.0,77,0.00,,,0.00,,2013-03-07 15:42:00,
2013-03-07 10:53:00,33.0,27.0,30.02,East,84,4.0,17.0,77,0.00,,,0.00,,2013-03-07 15:53:00,
2013-03-07 11:02:00,33.0,27.0,30.03,NE,51,3.0,12.0,78,0.01,,,0.01,,2013-03-07 16:02:00,
2013-03-07 11:13:00,33.0,27.0,30.03,NE,51,3.0,12.0,78,0.01,,,0.01,,2013-03-07 16:13:00,
2013-03-07 11:33:00,33.0,28.0,30.02,NNW,340,5.0,12.0,81,0.02,,,0.02,,2013-03-07 16:33:00,
2013-03-07 11:43:00,33.0,28.0,30.02,NNW,340,5.0,12.0,81,0.02,,,0.02,,2013-03-07 16:43:00,
2013-03-07 11:53:00,33.0,28.0,30.03,SSE,148,3.0,16.0,82,0.03,,,0.03,,2013-03-07 16:53:00,
2013-03-07 12:02:00,32.0,28.0,30.03,East,93,3.0,15.0,84,0.03,,,0.04,,2013-03-07 17:02:00,
2013-03-07 12:12:00,32.0,28.0,30.03,East,93,3.0,15.0,84,0.03,,,0.04,,2013-03-07 17:12:00,
2013-03-07 12:23:00,32.0,28.0,30.03,NE,43,3.0,19.0,84,0.03,,,0.04,,2013-03-07 17:23:00,
2013-03-07 12:33:00,32.0,28.0,30.03,ENE,68,4.0,15.0,84,0.03,,,0.05,,2013-03-07 17:33:00,
2013-03-07 12:43:00,32.0,28.0,30.03,ENE,68,4.0,15.0,84,0.03,,,0.05,,2013-03-07 17:43:00,
2013-03-07 12:54:00,32.0,28.0,30.03,NNW,340,3.0,15.0,84,0.02,,,0.05,,2013-03-07 17:54:00,
2013-03-07 13:04:00,33.0,29.0,30.03,SW,215,2.0,10.0,84,0.02,,,0.06,,2013-03-07 18:04:00,
2013-03-07 13:12:00,33.0,29.0,30.03,SW,215,2.0,10.0,84,0.02,,,0.06,,2013-03-07 18:12:00,
2013-03-07 13:22:00,33.0,29.0,30.03,WNW,287,2.0,8.0,84,0.02,,,0.06,,2013-03-07 18:22:00,
2013-03-07 13:32:00,33.0,28.0,30.02,NW,317,3.0,9.0,83,0.01,,,0.06,,2013-03-07 18:32:00,
2013-03-07 13:42:00,33.0,28.0,30.02,NW,317,3.0,9.0,83,0.01,,,0.06,,2013-03-07 18:42:00,
2013-03-07 13:53:00,33.0,28.0,30.02,WSW,255,2.0,11.0,83,0.02,,,0.07,,2013-03-07 18:53:00,
2013-03-07 14:03:00,34.0,29.0,30.02,SE,138,2.0,13.0,83,0.01,,,0.07,,2013-03-07 19:03:00,
2013-03-07 14:12:00,34.0,29.0,30.02,SE,138,2.0,13.0,83,0.01,,,0.07,,2013-03-07 19:12:00,
2013-03-07 14:23:00,34.0,30.0,30.02,WNW,301,2.0,10.0,84,0.01,,,0.07,,2013-03-07 19:23:00,
2013-03-07 14:35:00,34.0,29.0,30.02,ENE,76,2.0,11.0,82,0.01,,,0.07,,2013-03-07 19:35:00,
2013-03-07 14:43:00,34.0,29.0,30.02,ENE,76,2.0,11.0,82,0.01,,,0.07,,2013-03-07 19:43:00,
2013-03-07 14:53:00,34.0,29.0,30.02,NNW,335,3.0,14.0,83,0.00,,,0.07,,2013-03-07 19:53:00,
2013-03-07 15:02:00,34.0,30.0,30.02,NNE,24,2.0,7.0,84,0.00,,,0.07,,2013-03-07 20:02:00,
2013-03-07 15:13:00,34.0,30.0,30.02,NNE,24,2.0,7.0,84,0.00,,,0.07,,2013-03-07 20:13:00,
2013-03-07 15:22:00,33.0,29.0,30.02,ESE,117,1.0,6.0,85,0.00,,,0.07,,2013-03-07 20:22:00,
2013-03-07 15:43:00,33.0,29.0,30.02,NNW,340,4.0,11.0,85,0.01,,,0.08,,2013-03-07 20:43:00,
2013-03-07 15:54:00,32.0,29.0,30.02,WNW,284,1.0,13.0,87,0.01,,,0.08,,2013-03-07 20:54:00,
2013-03-07 16:03:00,32.0,29.0,30.03,SE,128,1.0,9.0,88,0.01,,,0.08,,2013-03-07 21:03:00,
2013-03-07 16:12:00,32.0,29.0,30.03,SE,128,1.0,9.0,88,0.01,,,0.08,,2013-03-07 21:12:00,
2013-03-07 16:23:00,32.0,29.0,30.03,North,355,3.0,9.0,89,0.01,,,0.08,,2013-03-07 21:23:00,
2013-03-07 16:33:00,32.0,29.0,30.03,NNW,348,1.0,7.0,90,0.00,,,0.08,,2013-03-07 21:33:00,
2013-03-07 16:43:00,32.0,29.0,30.03,NNW,348,1.0,7.0,90,0.00,,,0.08,,2013-03-07 21:43:00,
2013-03-07 16:53:00,31.0,28.0,30.03,ENE,57,3.0,13.0,90,0.00,,,0.08,,2013-03-07 21:53:00,
2013-03-07 17:02:00,31.0,28.0,30.03,ENE,57,3.0,13.0,90,0.00,,,0.08,,2013-03-07 22:02:00,
2013-03-07 17:12:00,31.0,28.0,30.03,ENE,57,3.0,13.0,90,0.00,,,0.08,,2013-03-07 22:12:00,
2013-03-07 17:23:00,31.0,29.0,30.03,NE,40,0.0,5.0,91,0.00,,,0.08,,2013-03-07 22:23:00,
2013-03-07 17:32:00,31.0,29.0,30.04,South,173,0.0,17.0,91,0.00,,,0.08,,2013-03-07 22:32:00,
2013-03-07 17:43:00,31.0,29.0,30.04,South,173,0.0,17.0,91,0.00,,,0.08,,2013-03-07 22:43:00,
2013-03-07 17:54:00,31.0,29.0,30.04,WSW,250,0.0,4.0,91,0.00,,,0.08,,2013-03-07 22:54:00,
2013-03-07 18:03:00,30.0,28.0,30.04,NNE,22,3.0,9.0,92,0.00,,,0.08,,2013-03-07 23:03:00,
2013-03-07 18:13:00,30.0,28.0,30.04,NNE,22,3.0,9.0,92,0.00,,,0.08,,2013-03-07 23:13:00,
2013-03-07 18:22:00,30.0,28.0,30.05,North,360,0.0,5.0,92,0.00,,,0.08,,2013-03-07 23:22:00,
2013-03-07 18:34:00,30.0,28.0,30.05,WNW,298,0.0,4.0,92,0.00,,,0.08,,2013-03-07 23:34:00,
2013-03-07 18:43:00,30.0,28.0,30.05,WNW,298,0.0,4.0,92,0.00,,,0.08,,2013-03-07 23:43:00,
2013-03-07 18:53:00,30.0,28.0,30.04,NNE,13,0.0,12.0,92,0.00,,,0.08,,2013-03-07 23:53:00,
2013-03-07 19:04:00,30.0,28.0,30.04,NNE,18,1.0,7.0,92,0.00,,,0.08,,2013-03-08 00:04:00,
2013-03-07 19:13:00,30.0,28.0,30.04,NNE,18,1.0,7.0,92,0.00,,,0.08,,2013-03-08 00:13:00,
2013-03-07 19:23:00,30.0,28.0,30.04,North,11,0.0,7.0,92,0.00,,,0.08,,2013-03-08 00:23:00,
2013-03-07 19:34:00,30.0,28.0,30.03,NNW,337,1.0,5.0,92,0.00,,,0.08,,2013-03-08 00:34:00,
2013-03-07 19:44:00,30.0,28.0,30.03,NNW,337,1.0,5.0,92,0.00,,,0.08,,2013-03-08 00:44:00,
2013-03-07 19:52:00,30.0,28.0,30.03,NE,53,1.0,9.0,92,0.00,,,0.08,,2013-03-08 00:52:00,
2013-03-07 20:02:00,30.0,28.0,30.04,ENE,64,1.0,8.0,92,0.00,,,0.08,,2013-03-08 01:02:00,
2013-03-07 20:11:00,30.0,28.0,30.04,ENE,64,1.0,8.0,92,0.00,,,0.08,,2013-03-08 01:11:00,
2013-03-07 20:21:00,30.0,28.0,30.03,SSW,206,0.0,5.0,92,0.00,,,0.08,,2013-03-08 01:21:00,
2013-03-07 20:33:00,30.0,28.0,30.03,SSW,206,0.0,5.0,92,0.00,,,0.08,,2013-03-08 01:33:00,
2013-03-07 20:42:00,30.0,28.0,30.03,SSW,206,0.0,5.0,92,0.00,,,0.08,,2013-03-08 01:42:00,
2013-03-07 20:52:00,30.0,28.0,30.03,North,-999,-999.0,-999.0,92,0.00,,,0.08,,2013-03-08 01:52:00,
2013-03-07 21:01:00,30.0,28.0,30.03,North,-999,-999.0,-999.0,92,0.00,,,0.08,,2013-03-08 02:01:00,
2013-03-07 21:12:00,30.0,28.0,30.03,North,-999,-999.0,-999.0,92,0.00,,,0.08,,2013-03-08 02:12:00,
2013-03-07 21:22:00,30.0,28.0,30.03,North,-999,-999.0,-999.0,92,0.00,,,0.08,,2013-03-08 02:22:00,
2013-03-07 21:32:00,30.0,28.0,30.03,North,-999,-999.0,-999.0,92,0.00,,,0.08,,2013-03-08 02:32:00,
2013-03-07 21:42:00,30.0,28.0,30.03,North,-999,-999.0,-999.0,92,0.00,,,0.08,,2013-03-08 02:42:00,
2013-03-07 21:52:00,29.0,27.0,30.02,North,-999,-999.0,-999.0,92,0.00,,,0.08,,2013-03-08 02:52:00,
2013-03-07 22:02:00,29.0,27.0,30.02,NW,321,2.0,9.0,92,0.00,,,0.08,,2013-03-08 03:02:00,
2013-03-07 22:12:00,29.0,27.0,30.02,NW,321,2.0,9.0,92,0.00,,,0.08,,2013-03-08 03:12:00,
2013-03-07 22:22:00,29.0,27.0,30.02,East,82,1.0,6.0,92,0.00,,,0.08,,2013-03-08 03:22:00,
2013-03-07 22:33:00,29.0,27.0,30.02,SE,138,1.0,8.0,92,0.00,,,0.08,,2013-03-08 03:33:00,
2013-03-07 22:43:00,29.0,27.0,30.02,SE,138,1.0,8.0,92,0.00,,,0.08,,2013-03-08 03:43:00,
2013-03-07 22:52:00,29.0,27.0,30.01,West,263,0.0,4.0,92,0.00,,,0.08,,2013-03-08 03:52:00,
2013-03-07 23:02:00,29.0,27.0,30.01,SSE,151,0.0,6.0,92,0.00,,,0.08,,2013-03-08 04:02:00,
2013-03-07 23:12:00,29.0,27.0,30.01,SSE,151,0.0,6.0,92,0.00,,,0.08,,2013-03-08 04:12:00,
2013-03-07 23:22:00,29.0,27.0,30.01,SSE,152,0.0,4.0,92,0.00,,,0.08,,2013-03-08 04:22:00,
2013-03-07 23:32:00,29.0,27.0,30.01,East,98,1.0,6.0,92,0.00,,,0.08,,2013-03-08 04:32:00,
2013-03-07 23:42:00,29.0,27.0,30.01,East,98,1.0,6.0,92,0.00,,,0.08,,2013-03-08 04:42:00,
2013-03-07 23:52:00,29.0,27.0,30.00,NNE,12,0.0,5.0,92,0.00,,,0.08,,2013-03-08 04:52:00,